Location: Hodgeman County Ambulance
(38.0844°N, 99.8949°W)
Time: 00:33:31
(UTC+00:00)

Gblst 52 Del rocket - Pass Details

Date: 27 October 2020
Orbit: 805 x 1365 km, 51.5° (Epoch: 04 December)

Event Time Altitude Azimuth Distance (km) Brightness Sun altitude
Rises 12:15:05 0° 229° (SW) 3,320 6.9 -9.6°
Reaches altitude 10° 12:17:27 10° 229° (SW) 2,417 6.2 -9.2°
Maximum altitude 12:23:04 90° 169° (S) 880 4.3 -8.1°
Drops below altitude 10° 12:29:22 10° 51° (NE) 2,695 7.4 -6.9°
Sets 12:32:08 0° 52° (NE) 3,730 8.2 -6.3°
